Date String (YYYY-MM-DD hh:mm:ss) UTC,Instrument flags,absolute air pressure of the measurement (hPa),sample flow rate (lpm),inlet stack bypass flow (lpm),air temperature of the measurement (°C),ambient temperature measured by the external sensor (°C),aerosol sample conditioner tube jacket temperature (°C),OPC LED temperature (°C),internal box temperature (°C),relative humidity of the measurement (%),span deviation,mass concentration of particles derived from Lorenz-Mie calculation of OPC scattering (μg/m³),mass concentration of particles derived from Lorenz-Mie calculation of OPC scattering (μg/m³),mass concentration of particles derived from Lorenz-Mie calculation of OPC scattering (μg/m³)
DateTimeUTC,F1_M11,P_M11,Q1_M11,Q2_M11,T1_M11,T2_M11,T3_M11,T4_M11,T5_M11,U1_M11,ZSPAN_M11,X2_M11,X0_M11,X1_M11
2024-03-05 15:00:00,SystemResetWarning,0829.4,5.00,000.00,018.6,018.0,000.0,027.1,020.1,15.0,0000.0,0003.24,0008.02,0002.62
2024-03-05 15:01:00,SystemResetWarning,0829.4,4.99,000.00,018.5,017.9,000.0,027.0,020.0,15.1,0000.0,0003.24,0008.22,0002.66
2024-03-05 15:02:00,SystemResetWarning,0829.3,5.00,000.00,018.5,017.7,000.0,027.1,020.0,15.5,0000.0,0003.25,0008.22,0002.67
2024-03-05 15:03:00,SystemResetWarning,0829.3,5.01,000.00,018.4,017.6,000.0,027.1,020.0,15.1,0000.0,0003.28,0007.86,0002.67
2024-03-05 15:04:00,SystemResetWarning,0829.2,5.00,000.00,018.4,017.5,000.0,027.1,020.0,15.1,0000.0,0003.29,0008.43,0002.69
2024-03-05 15:05:00,SystemResetWarning,0829.3,4.99,000.00,018.4,017.5,000.0,027.1,020.0,15.4,0000.0,0003.34,0009.13,0002.70
2024-03-05 15:06:00,SystemResetWarning,0829.3,4.99,000.00,018.3,017.5,000.0,027.1,020.0,15.1,0000.0,0003.38,0009.58,0002.73
2024-03-05 15:07:00,SystemResetWarning,0829.3,5.00,000.00,018.3,017.4,000.0,027.1,020.0,15.0,0000.0,0003.37,0009.95,0002.76
2024-03-05 15:08:00,SystemResetWarning,0829.3,5.00,000.00,018.3,017.4,000.0,027.1,020.0,15.3,0000.0,0003.38,0010.15,0002.77
2024-03-05 15:09:00,SystemResetWarning,0829.3,5.00,000.00,018.3,017.4,000.0,027.1,020.0,15.5,0000.0,0003.41,0009.99,0002.78
2024-03-05 15:10:00,SystemResetWarning,0829.3,5.00,000.00,018.3,017.5,000.0,027.1,020.1,15.3,0000.0,0003.43,0009.83,0002.79
2024-03-05 15:11:00,SystemResetWarning,0829.4,5.02,000.00,018.5,018.4,000.0,027.2,020.6,14.9,0000.0,0003.46,0009.95,0002.78
2024-03-05 15:12:00,SystemResetWarning,0829.4,5.00,000.00,018.8,019.3,000.0,027.2,021.2,14.6,0000.0,0003.47,0009.77,0002.78
2024-03-05 15:13:00,SystemResetWarning,0829.4,4.99,000.00,018.9,019.2,000.0,027.2,021.0,14.3,0000.0,0003.47,0009.80,0002.76
2024-03-05 15:14:00,SystemResetWarning,0829.4,5.00,000.00,018.8,018.9,000.0,027.1,020.7,14.3,0000.0,0003.43,0009.75,0002.73
2024-03-05 15:15:00,SystemResetWarning,0829.4,5.00,000.00,018.8,018.6,000.0,027.1,020.4,14.5,0000.0,0003.38,0009.43,0002.69
2024-03-05 15:16:00,SystemResetWarning,0829.4,5.01,000.00,018.7,018.3,000.0,027.1,020.2,14.7,0000.0,0003.36,0008.75,0002.68
2024-03-05 15:17:00,SystemResetWarning,0829.3,5.00,000.00,018.6,018.1,000.0,027.0,020.1,14.8,0000.0,0003.33,0008.60,0002.65
2024-03-05 15:18:00,SystemResetWarning,0829.3,5.00,000.00,018.5,017.9,000.0,027.0,020.0,14.9,0000.0,0003.34,0008.40,0002.62
2024-03-05 15:19:00,SystemResetWarning,0829.4,4.99,000.00,018.5,017.7,000.0,027.1,020.0,14.7,0000.0,0003.31,0007.73,0002.59
2024-03-05 15:20:00,SystemResetWarning,0829.3,5.01,000.00,018.4,017.7,000.0,027.1,020.0,14.1,0000.0,0003.27,0007.56,0002.55
2024-03-05 15:21:00,SystemResetWarning,0829.4,5.01,000.00,018.4,017.6,000.0,027.1,020.0,14.6,0000.0,0003.24,0007.92,0002.53
2024-03-05 15:22:00,SystemResetWarning,0829.4,4.99,000.00,018.4,017.5,000.0,027.1,020.0,14.8,0000.0,0003.18,0008.23,0002.49
2024-03-05 15:23:00,SystemResetWarning,0829.4,4.99,000.00,018.4,017.5,000.0,027.1,020.0,15.0,0000.0,0003.18,0007.91,0002.45
2024-03-05 15:24:00,SystemResetWarning,0829.3,5.01,000.00,018.3,017.4,000.0,027.1,020.0,14.8,0000.0,0003.16,0008.92,0002.43
2024-03-05 15:25:00,SystemResetWarning,0829.4,5.01,000.00,018.3,017.4,000.0,027.1,020.0,14.3,0000.0,0003.16,0009.17,0002.42
2024-03-05 15:26:00,SystemResetWarning,0829.4,5.00,000.00,018.3,017.5,000.0,027.1,020.1,13.9,0000.0,0003.19,0009.20,0002.41
2024-03-05 15:27:00,SystemResetWarning,0829.4,5.00,000.00,018.5,018.4,000.0,027.2,020.6,13.3,0000.0,0003.21,0009.19,0002.39
2024-03-05 15:28:00,SystemResetWarning,0829.4,5.00,000.00,018.8,019.2,000.0,027.2,021.1,12.9,0000.0,0003.18,0009.04,0002.35
2024-03-05 15:29:00,SystemResetWarning,0829.3,4.99,000.00,018.9,019.1,000.0,027.2,021.0,12.7,0000.0,0003.11,0009.17,0002.28
2024-03-05 15:30:00,SystemResetWarning,0829.3,4.99,000.00,018.8,018.8,000.0,027.1,020.6,12.9,0000.0,0003.10,0009.13,0002.25
2024-03-05 15:31:00,SystemResetWarning,0829.3,5.00,000.00,018.7,018.4,000.0,027.1,020.4,12.7,0000.0,0003.10,0009.31,0002.23
2024-03-05 15:32:00,SystemResetWarning,0829.3,5.02,000.00,018.7,018.1,000.0,027.1,020.2,12.5,0000.0,0003.10,0009.04,0002.20
2024-03-05 15:33:00,SystemResetWarning,0829.3,5.00,000.00,018.6,017.9,000.0,027.0,020.0,12.3,0000.0,0003.10,0008.33,0002.18
2024-03-05 15:34:00,SystemResetWarning,0829.3,5.00,000.00,018.5,017.8,000.0,027.1,020.0,12.6,0000.0,0003.14,0008.44,0002.16
2024-03-05 15:35:00,SystemResetWarning,0829.3,4.99,000.00,018.5,017.6,000.0,027.1,020.0,12.9,0000.0,0003.11,0007.67,0002.11
2024-03-05 15:36:00,SystemResetWarning,0829.4,5.00,000.00,018.4,017.5,000.0,027.1,020.0,13.0,0000.0,0003.10,0007.25,0002.05
2024-03-05 15:37:00,SystemResetWarning,0829.4,5.01,000.00,018.4,017.4,000.0,027.1,020.0,13.0,0000.0,0003.02,0007.17,0002.00
2024-03-05 15:38:00,SystemResetWarning,0829.4,5.01,000.00,018.4,017.6,000.0,027.2,020.2,13.1,0000.0,0002.85,0007.70,0001.94
2024-03-05 15:39:00,SystemResetWarning,0829.4,4.99,000.00,018.6,018.7,000.0,027.2,020.8,12.7,0000.0,0002.82,0007.73,0001.93
2024-03-05 15:40:00,SystemResetWarning,0829.5,5.00,000.00,018.9,019.3,000.0,027.3,021.2,12.5,0000.0,0002.84,0007.47,0001.90
2024-03-05 15:41:00,SystemResetWarning,0829.5,5.00,000.00,018.9,019.1,000.0,027.2,020.9,12.5,0000.0,0002.76,0007.85,0001.82
2024-03-05 15:42:00,SystemResetWarning,0829.4,5.00,000.00,018.9,018.7,000.0,027.2,020.6,12.5,0000.0,0002.63,0007.73,0001.71
2024-03-05 15:43:00,SystemResetWarning,0829.4,5.00,000.00,018.8,018.4,000.0,027.1,020.3,12.7,0000.0,0002.50,0007.99,0001.61
2024-03-05 15:44:00,SystemResetWarning,0829.4,5.02,000.00,018.7,018.2,000.0,027.1,020.1,12.7,0000.0,0002.38,0008.19,0001.49
2024-03-05 15:45:00,SystemResetWarning,0829.3,5.00,000.00,018.6,017.9,000.0,027.1,020.0,12.6,0000.0,0002.16,0008.08,0001.38
2024-03-05 15:46:00,SystemResetWarning,0829.3,5.00,000.00,018.5,017.8,000.0,027.1,020.0,12.7,0000.0,0002.07,0008.51,0001.27
2024-03-05 15:47:00,SystemResetWarning,0829.4,5.00,000.00,018.5,017.7,000.0,027.1,020.0,12.9,0000.0,0001.93,0008.40,0001.17
2024-03-05 15:48:00,SystemResetWarning,0829.4,5.00,000.00,018.4,017.6,000.0,027.1,020.0,12.9,0000.0,0001.82,0008.99,0001.07
2024-03-05 15:49:00,SystemResetWarning,0829.3,5.00,000.00,018.4,017.5,000.0,027.1,020.0,13.1,0000.0,0001.76,0008.83,0000.98
2024-03-05 15:50:00,SystemResetWarning,0829.4,5.00,000.00,018.4,017.5,000.0,027.1,020.0,13.3,0000.0,0001.63,0008.60,0000.86
2024-03-05 15:51:00,SystemResetWarning,0829.4,5.01,000.00,018.4,017.4,000.0,027.1,020.0,13.2,0000.0,0001.50,0008.28,0000.75
2024-03-05 15:52:00,SystemResetWarning,0829.3,5.00,000.00,018.3,017.4,000.0,027.1,020.0,13.0,0000.0,0001.50,0007.68,0000.71
2024-03-05 15:53:00,SystemResetWarning,0829.4,5.01,000.00,018.4,017.7,000.0,027.2,020.2,12.7,0000.0,0001.45,0007.57,0000.69
2024-03-05 15:54:00,SystemResetWarning,0829.3,5.00,000.00,018.6,018.7,000.0,027.2,020.9,12.6,0000.0,0001.45,0007.53,0000.68
2024-03-05 15:55:00,SystemResetWarning,0829.3,4.99,000.00,018.9,019.3,000.0,027.3,021.2,12.6,0000.0,0001.44,0007.24,0000.67
2024-03-05 15:56:00,SystemResetWarning,0829.4,5.00,000.00,018.9,019.1,000.0,027.2,020.9,12.5,0000.0,0001.42,0007.17,0000.68
2024-03-05 15:57:00,SystemResetWarning,0829.3,5.01,000.00,018.8,018.7,000.0,027.2,020.6,12.7,0000.0,0001.43,0006.23,0000.70
2024-03-05 15:58:00,SystemResetWarning,0829.3,5.00,000.00,018.8,018.5,000.0,027.1,020.4,12.6,0000.0,0001.49,0006.13,0000.71
2024-03-05 15:59:00,SystemResetWarning,0829.3,5.01,000.00,018.7,018.2,000.0,027.1,020.2,12.5,0000.0,0001.45,0005.11,0000.72
